Regional Weather Roundup
Issued by NWS Little Rock, AR

Home | Current Version | Previous Version | Text Only | Print | Product List | Glossary Off
Versions: 1 2 3 4 5 6 7 8 9 10 11 12 13 14 15 16 17 18 19 20 21 22 23 24 25 26 27 28 29 30 31 32 33 34 35 36 37 38 39 40 41 42 43 44 45 46 47 48 49 50

913
ASUS44 KLZK 100605
RWRLZK

WEATHER ROUNDUP FOR ARKANSAS
NATIONAL WEATHER SERVICE LITTLE ROCK AR
1200 AM CST WED FEB 10 2016

NOTE: "FAIR" INDICATES FEW OR NO CLOUDS BELOW 12,000 FEET WITH NO
SIGNIFICANT WEATHER AND/OR OBSTRUCTIONS TO VISIBILITY.

ARZ001-003-010-029-100700-
NORTHWEST ARKANSAS

CITY           SKY/WX    TMP DP  RH WIND       PRES   REMARKS
FAYETTEVILLE   CLEAR     24   7  48 VRB5      30.27S WCI  18
6HR MIN TEMP:  23; 6HR MAX TEMP:  33;

FORT SMITH     CLEAR     33   6  32 N15       30.31R WCI  23
6HR MIN TEMP:  33; 6HR MAX TEMP:  42;

HARRISON       CLEAR     24   5  44 NW13G20   30.22R WCI  12
6HR MIN TEMP:  24; 6HR MAX TEMP:  32;

BENTONVILLE    CLEAR    N/A N/A N/A N8        30.26F
ROGERS         PTCLDY    23   7  50 NW7       30.26F WCI  15
6HR MIN TEMP:  23; 6HR MAX TEMP:  33;

SILOAM SPGS    CLEAR     23   1  39 N8        30.28S WCI  14
6HR MIN TEMP:  23; 6HR MAX TEMP:  34;

HIGHFILL       CLEAR     22   8  55 N8        30.26S WCI  12
6HR MIN TEMP:  22; 6HR MAX TEMP:  34;

$$

ARZ004-005-016-100700-
NORTH CENTRAL ARKANSAS

CITY           SKY/WX    TMP DP  RH WIND       PRES   REMARKS
BATESVILLE     PTCLDY    28   7  40 W7        30.22S WCI  21
6HR MIN TEMP:  28; 6HR MAX TEMP:  36;

FLIPPIN        CLEAR    N/A N/A N/A NW12      30.20S
MTN HOME       CLEAR     25   4  40 NW9G23    30.20R WCI  15
6HR MIN TEMP:  25; 6HR MAX TEMP:  31;

$$

ARZ040-041-100700-
WEST CENTRAL ARKANSAS

CITY           SKY/WX    TMP DP  RH WIND       PRES   REMARKS
MENA           CLEAR     37  14  38 NW9G16    30.25S
MOUNT IDA      CLEAR     36  10  34 VRB5      30.22R
6HR MIN TEMP:  36; 6HR MAX TEMP:  44;

$$

ARZ009-017-025-026-028-100700-
NORTHEAST ARKANSAS

CITY           SKY/WX    TMP DP  RH WIND       PRES   REMARKS
CORNING        FAIR      27  10  50 NW12      30.20S WCI  16
JONESBORO      CLEAR     27  11  51 NW9       30.20R WCI  18
6HR MIN TEMP:  25; 6HR MAX TEMP:  31;

NEWPORT        CLEAR     28  10  46 NW10      30.23R WCI  19
6HR MIN TEMP:  26; 6HR MAX TEMP:  33;

WALNUT RIDGE   CLEAR     27   9  46 N10       30.21R WCI  17
6HR MIN TEMP:  25; 6HR MAX TEMP:  30;

BLYTHEVILLE    CLEAR     24  15  68 NW9       30.18S WCI  14
6HR MIN TEMP:  22; 6HR MAX TEMP:  31;

$$

ARZ022-023-033-042-044-100700-
CENTRAL ARKANSAS

CITY           SKY/WX    TMP DP  RH WIND       PRES   REMARKS
LITTLE ROCK    CLEAR     34  10  37 NW8       30.24R WCI  27
6HR MIN TEMP:  34; 6HR MAX TEMP:  44;

JACKSONVILLE   CLEAR     28   9  46 NW5       30.22S WCI  22
6HR MIN TEMP:  23; 6HR MAX TEMP:  40;

SEARCY         CLEAR     30  10  43 NW5       30.25S WCI  25
6HR MIN TEMP:  30; 6HR MAX TEMP:  37;

HOT SPRINGS    CLEAR     37  11  34 NW9       30.24R
6HR MIN TEMP:  36; 6HR MAX TEMP:  45;

RUSSELLVILLE   CLEAR     33   8  35 NW14      30.25R WCI  23
6HR MIN TEMP:  33; 6HR MAX TEMP:  41;

CLINTON        FAIR      30   5  34 CALM      30.25R
$$

ARZ036-100700-
EAST ARKANSAS

CITY           SKY/WX    TMP DP  RH WIND       PRES   REMARKS
WEST MEMPHIS   HAZE      28  17  63 NW5       30.19R VSB 1   WCI  23
6HR MIN TEMP:  26; 6HR MAX TEMP:  32;

$$

ARZ050-053-066-070-073-100700-
SOUTHWEST ARKANSAS

CITY           SKY/WX    TMP DP  RH WIND       PRES   REMARKS
ARKADELPHIA    FAIR      37  15  41 NW7       30.27R
6HR MIN TEMP:  37; 6HR MAX TEMP:  46;

CAMDEN         MIX PCPN  34  14  44 NW7       30.25S WCI  28
TEXARKANA      CLEAR     40  18  41 NW8       30.27S
6HR MIN TEMP:  40; 6HR MAX TEMP:  49;

EL DORADO      CLEAR     31  19  61 N3        30.25R
6HR MIN TEMP:  30; 6HR MAX TEMP:  49;

DE QUEEN       CLEAR     40  16  37 NW8       30.26F
6HR MIN TEMP:  36; 6HR MAX TEMP:  48;

$$

ARZ056-057-069-100700-
SOUTHEAST ARKANSAS

CITY           SKY/WX    TMP DP  RH WIND       PRES   REMARKS
PINE BLUFF     CLEAR     34  12  40 W3        30.24R
6HR MIN TEMP:  34; 6HR MAX TEMP:  45;

STUTTGART      CLEAR     30  16  55 NW12      30.23S WCI  21
6HR MIN TEMP:  30; 6HR MAX TEMP:  39;

MONTICELLO     CLEAR     34  12  40 NW3       30.23R
6HR MIN TEMP:  32; 6HR MAX TEMP:  48;


$$






USA.gov is the U.S. government's official web portal to all federal, state and local government web resources and services.